RSC108 GCXO-GCLP

Flight info

Callsign RSC108
Flight time 0h 28m
Altitude 14000
Route LALTO
Aircraft AT76/M-SDFGIRY/S

Departure

Time 2026-04-28 22:42
Airport Tenerife Norte-Ciudad de La Laguna Airport (GCXO)

Arrival

Time 2026-04-28 23:11
Airport Gran Canaria Airport (GCLP)
Time Latitude Longitude Altitude Speed Heading
2026-04-28 22:20 28.48762 -16.35000 2055 ft 0 kts 19°
2026-04-28 22:38 28.48762 -16.34999 2055 ft 1 kts 19°
2026-04-28 22:38 28.48742 -16.35007 2056 ft 5 kts 19°
2026-04-28 22:38 28.48701 -16.35027 2056 ft 3 kts 43°
2026-04-28 22:39 28.48678 -16.34988 2055 ft 16 kts 149°
2026-04-28 22:39 28.48598 -16.34805 2052 ft 32 kts 111°
2026-04-28 22:39 28.48527 -16.34589 2048 ft 27 kts 110°
2026-04-28 22:39 28.48463 -16.34399 2044 ft 24 kts 112°
2026-04-28 22:40 28.48406 -16.34226 2044 ft 22 kts 111°
2026-04-28 22:40 28.48351 -16.34067 2041 ft 21 kts 111°
2026-04-28 22:40 28.48300 -16.33912 2039 ft 20 kts 108°
2026-04-28 22:40 28.48252 -16.33763 2037 ft 20 kts 111°
2026-04-28 22:41 28.48203 -16.33618 2036 ft 20 kts 111°
2026-04-28 22:41 28.48163 -16.33551 2030 ft 7 kts 166°
2026-04-28 22:41 28.48132 -16.33579 2033 ft 5 kts 268°
2026-04-28 22:41 28.48136 -16.33707 2037 ft 28 kts 269°
2026-04-28 22:42 28.48232 -16.34045 2046 ft 71 kts 292°
2026-04-28 22:42 28.48465 -16.34745 2051 ft 116 kts 290°
2026-04-28 22:42 28.48749 -16.35665 2373 ft 129 kts 288°
2026-04-28 22:42 28.49034 -16.36671 2819 ft 137 kts 288°
2026-04-28 22:43 28.49347 -16.37768 2999 ft 154 kts 289°
2026-04-28 22:43 28.49737 -16.38993 3040 ft 177 kts 291°
2026-04-28 22:43 28.50197 -16.40388 3073 ft 198 kts 291°
2026-04-28 22:43 28.50696 -16.41900 3216 ft 209 kts 291°
2026-04-28 22:44 28.51226 -16.43465 3415 ft 215 kts 291°
2026-04-28 22:44 28.51831 -16.45018 3607 ft 215 kts 306°
2026-04-28 22:44 28.53039 -16.45962 3779 ft 221 kts 345°
2026-04-28 22:44 28.54519 -16.45834 4248 ft 210 kts 17°
2026-04-28 22:45 28.55877 -16.45320 4708 ft 200 kts 21°
2026-04-28 22:45 28.56893 -16.44286 5072 ft 201 kts 64°
2026-04-28 22:45 28.57109 -16.42740 5432 ft 199 kts 96°
2026-04-28 22:45 28.56939 -16.41186 5803 ft 197 kts 98°
2026-04-28 22:46 28.56729 -16.39644 6173 ft 197 kts 99°
2026-04-28 22:46 28.56461 -16.38128 6514 ft 194 kts 111°
2026-04-28 22:46 28.55765 -16.36810 6761 ft 195 kts 116°
2026-04-28 22:46 28.55467 -16.35316 6980 ft 194 kts 102°
2026-04-28 22:47 28.55097 -16.33813 7175 ft 200 kts 103°
2026-04-28 22:47 28.54811 -16.32250 7415 ft 203 kts 101°
2026-04-28 22:47 28.54475 -16.30709 7662 ft 204 kts 108°
2026-04-28 22:47 28.54097 -16.29144 7926 ft 206 kts 103°
2026-04-28 22:48 28.53758 -16.27555 8194 ft 207 kts 107°
2026-04-28 22:48 28.53281 -16.26016 8453 ft 207 kts 115°
2026-04-28 22:48 28.52569 -16.24580 8725 ft 209 kts 122°
2026-04-28 22:48 28.51778 -16.23193 8977 ft 211 kts 123°
2026-04-28 22:49 28.50946 -16.21768 9050 ft 222 kts 123°
2026-04-28 22:49 28.50077 -16.20262 9080 ft 233 kts 122°
2026-04-28 22:49 28.49191 -16.18671 9085 ft 242 kts 122°
2026-04-28 22:49 28.48294 -16.17022 9083 ft 249 kts 122°
2026-04-28 22:50 28.47375 -16.15335 9089 ft 254 kts 121°
2026-04-28 22:50 28.46439 -16.13618 9083 ft 258 kts 122°
2026-04-28 22:50 28.45488 -16.11872 9081 ft 261 kts 121°
2026-04-28 22:50 28.44529 -16.10113 9080 ft 263 kts 122°
2026-04-28 22:51 28.43888 -16.08940 9077 ft 264 kts 122°
2026-04-28 22:51 28.42917 -16.07158 9077 ft 265 kts 121°
2026-04-28 22:51 28.41944 -16.05375 9071 ft 266 kts 121°
2026-04-28 22:51 28.40962 -16.03586 9064 ft 267 kts 122°
2026-04-28 22:52 28.39983 -16.01789 9061 ft 267 kts 121°
2026-04-28 22:52 28.39009 -15.99990 9059 ft 268 kts 121°
2026-04-28 22:52 28.38029 -15.98191 9050 ft 268 kts 121°
2026-04-28 22:52 28.37047 -15.96394 9053 ft 268 kts 121°
2026-04-28 22:53 28.36065 -15.94595 9051 ft 268 kts 122°
2026-04-28 22:53 28.35083 -15.92798 9048 ft 268 kts 121°
2026-04-28 22:53 28.34101 -15.91000 9046 ft 268 kts 121°
2026-04-28 22:53 28.33132 -15.89226 9049 ft 268 kts 121°
2026-04-28 22:54 28.32149 -15.87428 9051 ft 268 kts 122°
2026-04-28 22:54 28.31168 -15.85635 9044 ft 268 kts 122°
2026-04-28 22:54 28.30185 -15.83837 9045 ft 268 kts 121°
2026-04-28 22:54 28.29202 -15.82042 9043 ft 268 kts 121°
2026-04-28 22:55 28.28221 -15.80247 9047 ft 268 kts 121°
2026-04-28 22:55 28.27237 -15.78453 9045 ft 268 kts 121°
2026-04-28 22:55 28.26252 -15.76658 9041 ft 268 kts 121°
2026-04-28 22:55 28.25269 -15.74863 9045 ft 268 kts 121°
2026-04-28 22:56 28.24286 -15.73070 9048 ft 268 kts 122°
2026-04-28 22:56 28.23301 -15.71276 9039 ft 267 kts 122°
2026-04-28 22:56 28.22319 -15.69486 9048 ft 267 kts 122°
2026-04-28 22:56 28.21334 -15.67694 9048 ft 267 kts 122°
2026-04-28 22:57 28.20350 -15.65903 9042 ft 268 kts 122°
2026-04-28 22:57 28.19378 -15.64135 9042 ft 268 kts 122°
2026-04-28 22:57 28.18393 -15.62339 9045 ft 268 kts 121°
2026-04-28 22:57 28.17408 -15.60549 9051 ft 268 kts 122°
2026-04-28 22:58 28.16421 -15.58758 9043 ft 268 kts 122°
2026-04-28 22:58 28.15435 -15.56967 9051 ft 268 kts 121°
2026-04-28 22:58 28.14450 -15.55177 9055 ft 268 kts 122°
2026-04-28 22:58 28.13461 -15.53384 9059 ft 268 kts 122°
2026-04-28 22:59 28.12474 -15.51589 9060 ft 269 kts 122°
2026-04-28 22:59 28.11481 -15.49794 9051 ft 269 kts 122°
2026-04-28 22:59 28.10490 -15.47995 9064 ft 269 kts 122°
2026-04-28 22:59 28.09500 -15.46204 9065 ft 269 kts 122°
2026-04-28 23:00 28.08507 -15.44408 9067 ft 269 kts 122°
2026-04-28 23:00 28.07504 -15.42625 9065 ft 267 kts 125°
2026-04-28 23:00 28.06267 -15.41050 8981 ft 271 kts 136°
2026-04-28 23:00 28.04877 -15.39592 8739 ft 272 kts 138°
2026-04-28 23:01 28.03488 -15.38153 8482 ft 270 kts 137°
2026-04-28 23:01 28.02156 -15.36703 8239 ft 268 kts 135°
2026-04-28 23:01 28.00840 -15.35215 7995 ft 267 kts 135°
2026-04-28 23:01 27.99527 -15.33733 7746 ft 265 kts 135°
2026-04-28 23:02 27.98221 -15.32262 7498 ft 264 kts 135°
2026-04-28 23:02 27.96919 -15.30800 7261 ft 263 kts 135°
2026-04-28 23:02 27.95615 -15.29343 7014 ft 263 kts 135°
2026-04-28 23:02 27.94270 -15.27972 6712 ft 260 kts 147°
2026-04-28 23:03 27.92547 -15.27430 6375 ft 261 kts 181°
2026-04-28 23:03 27.90764 -15.27770 6021 ft 260 kts 193°
2026-04-28 23:03 27.89002 -15.28263 5673 ft 261 kts 195°
2026-04-28 23:03 27.87240 -15.28794 5316 ft 262 kts 196°
2026-04-28 23:04 27.85501 -15.29336 4869 ft 249 kts 196°
2026-04-28 23:04 27.82403 -15.30295 3851 ft 217 kts 197°
2026-04-28 23:04 27.80980 -15.30712 3356 ft 217 kts 197°
2026-04-28 23:05 27.79531 -15.31128 2992 ft 212 kts 196°
2026-04-28 23:05 27.78106 -15.31536 2783 ft 209 kts 196°
2026-04-28 23:05 27.76770 -15.32077 2618 ft 198 kts 218°
2026-04-28 23:05 27.76055 -15.33304 2540 ft 184 kts 262°
2026-04-28 23:06 27.75904 -15.34687 2514 ft 172 kts 266°
2026-04-28 23:06 27.75888 -15.36010 2480 ft 165 kts 275°
2026-04-28 23:06 27.75939 -15.37306 2494 ft 167 kts 276°
2026-04-28 23:06 27.76282 -15.38513 2458 ft 165 kts 315°
2026-04-28 23:07 27.77309 -15.39094 2348 ft 169 kts 341°
2026-04-28 23:07 27.78439 -15.39543 2226 ft 172 kts 340°
2026-04-28 23:07 27.79557 -15.39995 2060 ft 169 kts 341°
2026-04-28 23:07 27.80659 -15.40440 1919 ft 167 kts 341°
2026-04-28 23:08 27.81733 -15.40869 1762 ft 155 kts 342°
2026-04-28 23:08 27.82698 -15.41256 1603 ft 143 kts 341°
2026-04-28 23:08 27.83578 -15.41603 1545 ft 127 kts 341°
2026-04-28 23:08 27.84395 -15.41887 1477 ft 121 kts 350°
2026-04-28 23:09 27.85253 -15.41943 1370 ft 126 kts
2026-04-28 23:09 27.86092 -15.41788 1341 ft 121 kts 18°
2026-04-28 23:09 27.86878 -15.41430 1260 ft 124 kts 22°
2026-04-28 23:09 27.87685 -15.41074 1150 ft 125 kts 19°
2026-04-28 23:10 27.88513 -15.40716 1016 ft 129 kts 20°
2026-04-28 23:10 27.89368 -15.40337 791 ft 133 kts 20°
2026-04-28 23:10 27.90244 -15.39950 562 ft 138 kts 18°
2026-04-28 23:10 27.91127 -15.39569 292 ft 133 kts 19°
2026-04-28 23:11 27.91969 -15.39196 102 ft 127 kts 19°
2026-04-28 23:11 27.92642 -15.38902 69 ft 52 kts 21°
2026-04-28 23:11 27.92928 -15.38771 60 ft 40 kts 19°
2026-04-28 23:11 27.93166 -15.38719 59 ft 32 kts 356°
2026-04-28 23:12 27.93361 -15.38748 56 ft 25 kts 359°
2026-04-28 23:12 27.93506 -15.38707 53 ft 19 kts 21°
2026-04-28 23:12 27.93612 -15.38661 48 ft 14 kts 20°
2026-04-28 23:12 27.93695 -15.38623 48 ft 11 kts 22°
2026-04-28 23:13 27.93762 -15.38593 50 ft 10 kts 21°
2026-04-28 23:13 27.93822 -15.38566 49 ft 9 kts 21°
2026-04-28 23:13 27.93879 -15.38541 48 ft 8 kts 20°
2026-04-28 23:13 27.93931 -15.38534 47 ft 7 kts 338°
2026-04-28 23:14 27.93971 -15.38562 44 ft 6 kts 323°
2026-04-28 23:14 27.93999 -15.38595 46 ft 6 kts 313°
2026-04-28 23:14 27.94023 -15.38627 45 ft 5 kts 304°
2026-04-28 23:14 27.94038 -15.38662 45 ft 5 kts 292°
2026-04-28 23:15 27.94051 -15.38699 45 ft 5 kts 292°
2026-04-28 23:15 27.94056 -15.38713 45 ft 0 kts 294°
2026-04-28 23:33 27.83124 -15.41425 1579 ft 134 kts 342°
2026-04-28 23:33 27.83950 -15.41754 1498 ft 122 kts 341°
2026-04-28 23:33 27.84779 -15.41934 1435 ft 123 kts 356°
2026-04-28 23:34 27.85647 -15.41909 1358 ft 122 kts
2026-04-28 23:34 27.86455 -15.41628 1298 ft 124 kts 21°
2026-04-28 23:34 27.87252 -15.41248 1212 ft 124 kts 20°
2026-04-28 23:34 27.88061 -15.40915 1084 ft 128 kts 21°
2026-04-28 23:35 27.88902 -15.40556 872 ft 132 kts 18°
2026-04-28 23:35 27.89763 -15.40166 676 ft 135 kts 20°
2026-04-28 23:35 27.90649 -15.39776 418 ft 136 kts 19°
2026-04-28 23:35 27.91511 -15.39395 193 ft 130 kts 19°
2026-04-28 23:36 27.92328 -15.39036 69 ft 115 kts 19°
2026-04-28 23:36 27.92776 -15.38837 66 ft 45 kts 24°
2026-04-28 23:36 27.91199 -15.39536 272 ft 132 kts 20°
2026-04-28 23:36 27.92038 -15.39165 94 ft 126 kts 19°
2026-04-28 23:37 27.92668 -15.38892 69 ft 46 kts 15°
2026-04-28 23:37 27.92741 -15.38856 65 ft 0 kts 27°
2026-04-28 23:37 28.46925 -16.30127 2541 ft 131 kts 291°
2026-04-28 23:37 28.47239 -16.31082 2368 ft 128 kts 291°
2026-04-28 23:38 28.47555 -16.32029 2165 ft 127 kts 290°
2026-04-28 23:38 28.47865 -16.32958 2029 ft 120 kts 291°
2026-04-28 23:38 28.47536 -16.31968 2195 ft 127 kts 290°